Location: *
(63.9400°N, 135.1760°W)
Time: 10:49:43
(UTC+00:00)

Daily predictions for brighter satellites

Satellite Brightness Start Highest point End
(mag) Time Altitude Azimuth Time Altitude Azimuth Time Altitude Azimuth
ADEOS 3.9 12:03:24 10° NNE 12:08:28 62° E 12:08:28 62° E
Meteor 2-19 Rocket 4.4 12:09:16 75° NW 12:09:16 75° NW 12:15:07 10° NNE
Cosmos 2327 Rocket 4.3 12:10:12 83° NW 12:10:12 83° NW 12:16:18 10° NNE
Cosmos 1503 Rocket 4.2 12:10:57 69° NE 12:10:57 69° NE 12:15:42 10° NE
Cosmos 1486 Rocket 4.4 12:12:51 60° N 12:12:51 60° N 12:17:22 10° NE
H-2A R/B 4.2 12:08:06 10° NNE 12:10:27 28° N 12:10:27 28° N
NPP 4.1 12:08:12 10° NNE 12:12:41 54° NNW 12:12:41 54° NNW
Cosmos 2263 Rocket 3.0 12:12:38 34° NNW 12:14:33 46° NNE 12:20:00 10° E
Cosmos 1809 Rocket 4.5 12:15:37 65° SSE 12:16:22 73° E 12:22:27 10° NNE
CZ-2D R/B 2.3 12:12:17 10° NNE 12:16:51 64° N 12:16:51 64° N
Cosmos 2285 Rocket 3.9 12:16:33 10° NW 12:23:02 89° WSW 12:29:31 10° SE
Cosmos 2369 Rocket 2.1 12:24:04 78° SE 12:24:04 78° SE 12:29:47 10° NE
Cosmos 1346 Rocket 4.4 12:24:42 31° E 12:24:42 31° E 12:27:53 10° NNE
NOSS 2-3 (E) 4.4 12:26:34 62° SSE 12:26:34 62° SSE 12:33:01 10° ENE
SL-8 Rocket 4.5 12:25:14 32° SSE 12:28:01 56° E 12:34:08 10° NNE
Cosmos 1943 Rocket 2.2 12:28:11 67° SE 12:28:24 68° SE 12:33:58 10° NE
ATLAS 2AS CENTAUR R/B 3.4 12:26:46 43° S 12:29:00 55° SE 12:36:50 10° ENE
Cosmos 1339 Rocket 4.4 12:25:10 10° NNW 12:31:38 89° ENE 12:34:53 32° SSE
Spot 4 Rocket 4.1 12:31:44 10° NNE 12:36:27 66° NNW 12:36:27 66° NNW
Cosmos 1844 Rocket 3.6 12:38:37 32° NW 12:40:25 41° N 12:45:46 10° ENE
SL-16 R/B 4.4 12:43:30 15° NW 12:43:30 15° NW 12:45:05 10° NNW
CBERS 1 LM4 rocket 4.4 12:36:56 10° NNE 12:42:00 76° NW 12:42:00 76° NW
UNKNOWN OBJECT B 4.2 12:39:28 10° NNE 12:41:39 33° NNE 12:41:39 33° NNE
Cosmos 1300 4.0 12:45:09 38° NNE 12:45:09 38° NNE 12:47:36 10° NNE
ADEOS Rocket 4.4 12:39:03 10° NNE 12:44:09 28° NW 12:45:23 26° NW
COSMO-SKYMED 1 3.8 12:42:18 10° SE 12:46:25 42° ENE 12:50:33 10° NNW
Cosmos 1818 3.5 12:46:28 74° WNW 12:46:55 82° N 12:52:26 10° E
USA 229 DEB 3.6 12:45:15 54° W 12:47:05 87° S 12:54:19 10° E
USA 229 3.6 12:45:21 54° W 12:47:11 87° S 12:54:25 10° E
NOSS 3-1 (A) 3.6 12:47:19 59° WSW 12:48:48 85° S 12:56:21 10° E
Cosmos 2084 4.2 12:51:52 43° E 12:51:52 43° E 12:54:34 10° E
CZ-4B R/B 4.1 12:47:58 10° NNE 12:51:21 34° E 12:51:50 33° ESE
Okean O Rocket 3.3 12:48:45 10° NNE 12:52:42 31° E 12:56:20 12° SSE
CZ-2C R/B 4.2 12:48:18 10° SE 12:52:54 60° ENE 12:57:27 10° NNW
Cosmos 1869 Rocket 4.4 12:50:53 10° NNW 12:55:11 50° ENE 12:59:30 10° SE
CENTAUR R/B 3.6 12:57:21 37° SSW 12:57:21 37° SSW 13:03:24 10° SSE
Meteor 2-3 Rocket 3.7 12:54:19 10° NNW 13:00:06 64° W 13:00:43 60° SW
Cosmos 2154 Rocket 4.0 12:59:01 56° WSW 13:00:10 67° WNW 13:06:33 10° NNE
NOSS 2-3 (C) 4.2 13:02:12 59° SW 13:03:14 74° SSE 13:09:59 10° ENE
Cosmos 2221 3.0 13:04:14 50° NNW 13:04:14 50° NNW 13:07:49 10° NNE
Cosmos 1656 Rocket 3.9 13:03:17 45° S 13:04:46 62° SE 13:10:13 10° NE
Geosat 3.8 13:00:13 10° SE 13:05:16 78° SW 13:06:26 53° WNW
COSMOS 2455 2.7 13:03:59 43° WNW 13:06:08 83° SSW 13:12:12 10° SE
Cosmos 2227 Rocket 4.0 13:12:15 17° S 13:12:15 17° S 13:13:32 10° S
Cosmos 1777 Rocket 4.2 13:09:18 45° S 13:10:50 68° ESE 13:16:05 10° NE
Resurs 1-4 Rocket 2.6 13:06:01 10° NNE 13:11:00 41° NW 13:11:09 41° WNW
Cosmos 2228 Rocket 3.9 13:09:05 22° SSE 13:11:48 51° E 13:16:16 10° NNE
Cosmos 2184 Rocket 4.4 13:14:16 41° WNW 13:15:07 43° WNW 13:21:11 10° NNE
ADEOS II 2.0 13:10:25 10° NNE 13:15:44 88° WNW 13:17:22 46° SSW
Cosmos 2074 Rocket 4.5 13:15:52 39° WNW 13:16:35 41° WNW 13:22:29 10° NNE
Cosmos 1340 4.1 13:14:41 20° SSE 13:16:43 36° E 13:20:14 10° NNE
IRS-1D 4.1 13:13:42 10° NNE 13:18:34 40° NW 13:18:46 40° WNW
Meteor 2-10 3.9 13:18:24 59° WSW 13:19:00 65° WNW 13:24:13 10° NNE
ARIANE 5 R/B 2.9 13:14:48 10° NNE 13:19:33 44° NW 13:19:40 43° WNW
SL-24 R/B - RUBIN 2 4.3 13:19:21 41° SSW 13:20:43 54° SE 13:25:26 10° ENE
Cosmos 1862 3.7 13:18:36 10° NNW 13:22:34 63° ENE 13:26:32 10° SSE
Cosmos 2297 Rocket 3.3 13:25:20 26° SSW 13:25:20 26° SSW 13:28:03 10° S
RESURS DK-1 4.3 13:20:46 16° SSE 13:23:11 26° ESE 13:26:40 10° ENE
NOSS 3-1 (C) 3.7 13:21:11 40° W 13:23:56 87° S 13:31:38 10° E
Cosmos 2263 4.2 13:24:02 49° WSW 13:25:40 76° NW 13:31:29 10° NE
Cosmos 2366 rocket 3.9 13:22:45 21° SSW 13:27:04 88° ESE 13:33:17 10° NNE
CZ-4B R/B 4.1 13:22:40 10° NNE 13:27:52 48° E 13:33:08 10° S
Cosmos 1726 3.8 13:31:31 23° NNW 13:31:31 23° NNW 13:33:26 10° N
Cosmos 864 Rocket 4.5 13:26:01 19° SSW 13:30:49 89° E 13:37:10 10° NNE
Cosmos 2341 Rocket 4.0 13:28:53 40° SW 13:31:01 61° WNW 13:37:21 10° NNE
Cosmos 2218 Rocket 3.9 13:27:23 25° SSW 13:31:09 84° WNW 13:37:22 10° NNE
Cosmos 1455 2.3 13:30:26 50° S 13:31:18 72° ESE 13:35:06 10° NNE
SKYMED 2 3.6 13:29:58 10° SSE 13:34:20 83° ENE 13:38:43 10° NNW
Helios 1A Rocket 4.2 13:32:40 10° N 13:35:33 27° NNW 13:35:33 27° NNW
Cosmos 968 Rocket 3.6 13:35:13 47° W 13:36:23 60° NW 13:41:30 10° NE
Cosmos 1328 Rocket 3.4 13:36:21 41° SSW 13:37:50 90° WNW 13:42:13 10° NNE
Cosmos 1515 Rocket 3.6 13:37:37 25° S 13:40:06 75° ESE 13:44:27 10° NNE
Cosmos 2297 4.5 13:38:06 29° WNW 13:40:29 43° N 13:45:53 10° ENE
Cosmos 1048 Rocket 3.9 13:35:17 10° NW 13:40:29 87° SW 13:45:40 10° SE
PSLV R/B 3.4 13:36:11 10° NNE 13:40:32 86° WNW 13:42:06 39° SSW
Meteor 2-16 Rocket 4.4 13:38:37 35° SW 13:41:12 62° WNW 13:47:21 10° NNE
Cosmos 1000 Rocket 4.4 13:37:01 10° NNW 13:43:18 70° W 13:49:31 10° S
Cosmos 2278 Rocket 3.1 13:40:49 23° NW 13:43:56 42° N 13:49:19 10° ENE
Meteor PRIRODA 4.3 13:40:43 10° NNE 13:44:27 55° ESE 13:47:21 16° S
Aureole 1 Rocket 4.5 13:36:57 10° NW 13:45:18 62° WSW 13:52:21 10° SSE
CZ-2D R/B 4.3 13:41:33 10° N 13:45:40 37° NW 13:45:45 37° WNW
MTI 3.8 13:42:49 10° SSE 13:46:00 76° ENE 13:49:13 10° NNW
Cosmos 1727 Rocket 4.3 13:40:16 10° NNW 13:46:14 44° W 13:50:30 19° SSW
H-2A R/B 4.4 13:44:11 10° N 13:47:01 17° NW 13:47:04 17° NW
Cosmos 2082 4.5 13:48:58 31° SW 13:48:58 31° SW 13:52:51 10° S
MOS 1-B 4.3 13:42:10 10° NNE 13:48:00 90° NNW 13:52:42 16° SSW
ADEOS 4.0 13:43:10 10° NNE 13:48:06 43° NW 13:49:17 37° W
NOSS 2-3 (D) 4.3 13:48:22 37° WSW 13:50:47 84° S 13:57:45 10° E
TIMED 4.4 13:50:07 42° SW 13:51:34 86° NW 13:56:00 10° NE
Cosmos 1437 2.7 13:52:44 56° S 13:53:17 76° ESE 13:56:29 10° NNE
CZ-2C R/B 4.3 13:51:53 10° NNE 13:56:20 32° E 14:00:52 10° SSE
CZ-2D R/B 3.2 13:52:42 10° NNE 13:57:06 27° NW 13:58:11 25° WNW
USA 116 4.3 13:54:02 10° S 13:58:37 55° W 14:03:41 10° NNW
Meteor 1-31 Rocket 3.0 13:55:12 10° NNE 13:59:02 69° ESE 14:02:33 12° S
Cosmos 2263 Rocket 2.2 13:54:19 15° NW 13:59:06 83° NE 14:04:47 10° SE
Cosmos 1346 Rocket 2.9 14:00:14 47° W 14:00:40 50° WNW 14:04:30 10° NNE
Cosmos 158 Rocket 3.9 13:59:41 17° NW 14:03:20 53° WSW 14:08:13 10° SSE
Cosmos 2227 4.1 13:59:42 16° NW 14:04:18 64° SW 14:09:52 10° SSE
EO 1 Del DPAF 3.2 14:00:41 10° SSE 14:04:32 90° SW 14:08:25 10° NNW
Cosmos 2369 Rocket 2.6 14:05:51 29° W 14:08:30 52° NNW 14:14:05 10° NE
Cosmos 1733 Rocket 3.3 14:06:02 10° NNW 14:10:25 72° ENE 14:14:48 10° SSE
Meteor 2-2 Rocket 4.3 14:07:39 22° SW 14:11:22 60° WNW 14:16:59 10° NNE
Cosmos 1943 Rocket 2.4 14:09:41 29° W 14:12:24 56° NNW 14:17:55 10° NE
SL-8 Rocket 4.2 14:09:53 23° SW 14:13:35 50° WNW 14:19:42 10° NNE
Lacrosse 5 rocket 3.4 14:15:14 12° SSW 14:15:14 12° SSW 14:16:01 10° S
NOSS 2-3 (E) 4.4 14:13:59 28° W 14:17:16 86° S 14:24:25 10° E
UNKNOWN OBJECT B 4.3 14:14:29 10° N 14:17:06 20° NW 14:17:06 20° NW
SL-08 R/B 4.5 14:13:14 14° SW 14:18:31 59° WNW 14:24:35 10° NNE
ATLAS 2AS CENTAUR R/B 3.1 14:14:12 23° WSW 14:19:46 84° SSE 14:27:50 10° E
Cosmos 1300 4.1 14:20:09 22° NW 14:20:09 22° NW 14:23:02 10° N
PSLV R/B 3.9 14:17:25 10° NNE 14:21:07 50° WNW 14:22:41 30° WSW
Cosmos 405 2.9 14:18:33 10° NNW 14:22:08 83° WSW 14:25:43 10° SSE
NOSS 2 (F) 4.5 14:21:53 47° W 14:22:36 73° S 14:25:25 10° ESE
COSMO-SKYMED 1 2.7 14:18:23 10° S 14:22:37 48° W 14:26:51 10° NNW
Aureole 3 3.3 14:19:16 10° NNW 14:22:50 61° ENE 14:25:53 10° SSE
Cosmos 1151 Rocket 3.0 14:20:42 18° SW 14:23:56 60° WNW 14:28:18 10° NNE
Landsat 4 3.7 14:21:22 10° S 14:25:01 52° WSW 14:28:42 10° NNW
Cosmos 1844 Rocket 3.2 14:20:16 13° NW 14:25:15 58° NNE 14:30:50 10° ESE
CZ-4B R/B 3.0 14:23:10 10° N 14:26:39 44° WNW 14:28:00 30° WSW
Cosmos 1269 Rocket 4.0 14:22:55 10° NW 14:28:09 60° WSW 14:33:20 10° SSE
OPS 6432 4.1 14:27:48 39° W 14:28:49 81° S 14:32:13 10° E
SJ 16-02 3.8 14:25:17 10° SSE 14:28:53 25° ESE 14:32:31 10° NE
Okean O Rocket 1.6 14:25:02 10° NNE 14:29:26 66° WNW 14:33:48 10° SW
Cosmos 2084 3.2 14:28:26 31° W 14:30:08 67° SSW 14:33:56 10° ESE
CZ-2C R/B 4.3 14:26:00 10° SSW 14:30:19 36° W 14:34:35 10° NNW
Meteor 1-14 Rocket 4.4 14:24:25 10° NNW 14:30:28 84° ENE 14:36:29 10° SSE
Cosmos 1818 3.6 14:27:06 22° WNW 14:30:44 89° NNE 14:36:14 10° ESE
Cosmos 1437 Rocket 3.8 14:27:05 10° NNW 14:31:08 50° ENE 14:35:08 10° SE
Cosmos 1980 Rocket 4.3 14:27:03 10° SSE 14:31:47 28° ESE 14:36:31 10° NE
IDEFIX/ARIANE 42P 3.1 14:26:56 10° NNE 14:32:12 64° ESE 14:37:25 10° S
Cosmos 1869 Rocket 4.0 14:28:57 10° NNW 14:33:01 38° W 14:37:06 10° SSW
Cosmos 1844 4.2 14:29:33 12° NW 14:34:36 56° NNE 14:40:06 10° ESE
NOAA 6 4.4 14:31:01 10° NNE 14:36:14 68° ESE 14:41:23 10° S
USA 229 DEB 3.9 14:32:41 18° WNW 14:37:58 64° SSW 14:45:06 10° SE
USA 229 3.9 14:32:47 18° WNW 14:38:04 64° SSW 14:45:13 10° SE
NOSS 3-1 (A) 3.8 14:34:44 19° W 14:39:50 79° SSW 14:47:42 10° ESE
Cosmos 2123 Rocket 4.1 14:35:45 10° NNW 14:41:44 52° W 14:47:43 10° SSW
Cosmos 2221 4.1 14:41:05 18° WNW 14:41:56 19° NW 14:45:04 10° N
Cosmos 1869 3.2 14:39:00 10° SSW 14:42:56 65° WNW 14:46:54 10° NNE
Sich 1 Rocket 4.2 14:38:37 10° NNW 14:43:01 60° ENE 14:47:23 10° SSE
CENTAUR R/B 4.3 14:44:36 17° WSW 14:44:57 17° WSW 14:49:39 10° SW
CZ-4B R/B 4.2 14:40:36 10° NNE 14:45:05 62° WNW 14:49:31 10° SW
NOSS 3-4 (A) 3.9 14:39:58 12° SW 14:45:48 66° SSE 14:52:33 10° ENE
NOSS 3-4 (C) 3.9 14:40:03 12° SW 14:45:54 66° SSE 14:52:40 10° ENE
ERBS 4.1 14:45:33 14° SW 14:47:42 24° S 14:50:34 10° ESE
Cosmos 1656 Rocket 3.8 14:44:39 19° WSW 14:48:32 58° NNW 14:54:01 10° NE
Cosmos 2098 Rocket 4.3 14:43:37 10° SW 14:49:22 51° WNW 14:56:17 10° NNE
Resurs 1-4 Rocket 3.7 14:46:09 10° NNE 14:49:46 19° NNW 14:52:15 14° WNW
NOSS 5 (C) 4.2 14:48:08 25° WSW 14:49:47 75° S 14:53:05 10° E
Cosmos 2228 Rocket 3.6 14:46:36 14° SW 14:50:11 40° WNW 14:54:33 10° N
Cosmos 1656 4.2 14:45:17 10° SSW 14:50:37 58° SE 14:56:01 10° NE
Cosmos 2150 Rocket 4.4 14:46:00 10° SSW 14:51:05 64° ESE 14:56:13 10° NE
COSMOS 2455 3.4 14:47:08 15° WNW 14:51:37 37° WSW 14:57:04 10° S
Cosmos 1707 Rocket 3.7 14:47:23 10° SSW 14:51:53 85° ESE 14:56:24 10° NNE
Cosmos 1340 3.0 14:49:32 15° SW 14:52:22 43° WNW 14:56:02 10° NNE
CZ-4 R/B 4.2 14:49:33 10° NE 14:52:35 21° E 14:55:35 10° SE
Cosmos 1777 Rocket 4.4 14:49:33 18° WSW 14:53:12 47° NW 14:58:19 10° NE
ADEOS II 3.0 14:50:27 10° NNE 14:55:02 31° NW 14:58:19 16° W
Cosmos 1934 Rocket 4.0 14:48:51 10° SSW 14:55:15 83° WNW 15:01:41 10° NNE
Cosmos 494 Rocket 3.9 14:51:01 10° NW 14:56:09 65° WSW 15:01:13 10° SSE
Cosmos 1782 Rocket 4.1 14:53:09 10° NNW 14:57:33 62° ENE 15:01:52 10° SSE
ARIANE 5 R/B 4.1 14:54:20 10° N 14:57:43 18° NNW 15:00:00 14° WNW
Meteor 1-20 Rocket 4.3 14:52:35 10° NNW 14:58:29 80° WSW 15:04:20 10° SSE
Cosmos 1862 4.2 14:55:23 10° NNW 14:58:44 26° W 15:02:06 10° SSW
Cosmos 1633 2.4 14:55:16 10° NNW 14:58:54 82° WSW 15:02:33 10° SSE
RESURS DK-1 2.4 14:56:42 10° SW 15:00:50 89° SE 15:05:03 10° NE
Cosmos 1933 3.5 14:59:01 10° S 15:03:06 78° ESE 15:07:11 10° NNE
Cosmos 2242 Rocket 4.4 14:58:42 10° S 15:03:13 58° E 15:07:45 10° NNE
Cosmos 1697 Rocket 3.5 14:58:18 10° SSW 15:03:45 53° ESE 15:09:13 10° NE
SL-24 R/B - RUBIN 2 3.8 15:00:13 16° WSW 15:04:26 88° NNW 15:09:09 10° ENE
IRS-1C Rocket 4.1 14:59:21 10° NNE 15:04:37 64° WNW 15:09:49 10° SW
Okean 2 Rocket 4.0 15:00:27 10° NNW 15:04:50 52° ENE 15:09:14 10° SE
Cosmos 2297 Rocket 4.0 15:07:15 11° WSW 15:07:15 11° WSW 15:07:44 10° WSW
Meteor 2-10 Rocket 3.4 15:01:04 10° SSW 15:06:07 78° WNW 15:11:11 10° NNE
Cosmos 1455 3.3 15:05:25 17° W 15:07:22 25° NW 15:10:35 10° N
CZ-4B R/B 3.3 15:03:24 10° NNE 15:08:37 55° WNW 15:13:54 10° SW
Cosmos 1821 Rocket 4.0 15:03:05 10° SSW 15:09:11 61° WNW 15:15:27 10° NNE
PAYLOAD A 3.8 15:05:15 10° NNE 15:09:58 82° WNW 15:14:44 10° SSW
Cosmos 2251 Rocket 3.5 15:05:09 10° NW 15:10:25 73° WSW 15:15:42 10° SSE
Thor Agena Rocket 3.6 15:06:12 10° S 15:11:27 63° WSW 15:16:39 10° NNW
NOSS 3-1 (C) 4.0 15:08:34 13° WNW 15:14:48 65° SSW 15:22:39 10° SE
Meteor 1-11 Rocket 4.2 15:09:00 10° NNW 15:14:49 68° ENE 15:20:44 10° SSE
CZ-4B DEB 4.5 15:11:06 10° NNE 15:16:20 47° NW 15:21:34 10° SW
Meteor 1-25 Rocket 4.3 15:11:30 10° NNW 15:17:04 62° W 15:22:41 10° S
Okean-O 2.6 15:12:37 10° NNE 15:17:05 79° WNW 15:21:32 10° SSW
Cosmos 1515 Rocket 4.5 15:14:47 11° WSW 15:18:25 28° NW 15:22:12 10° N
Tsikada Rocket 4.3 15:12:52 10° NNW 15:19:17 75° ENE 15:25:37 10° SSE
Cosmos 1535 Rocket 4.5 15:13:42 10° SSW 15:19:46 60° WNW 15:25:51 10° NNE
Cosmos 405 Rocket 3.5 15:16:59 10° S 15:20:54 59° ESE 15:24:44 10° NNE
Cosmos 2297 4.4 15:20:14 10° WNW 15:25:43 47° NNE 15:31:10 10° E
Cosmos 1437 4.2 15:25:27 13° W 15:27:14 19° NW 15:29:40 10° N
Cosmos 2278 Rocket 2.7 15:23:17 10° NW 15:28:55 60° NNE 15:34:33 10° ESE
Meteor 1-31 Rocket 3.8 15:30:00 10° N 15:33:15 27° NW 15:36:31 10° WSW
CZ-2C R/B 2.4 15:30:05 10° NNE 15:35:00 72° WNW 15:40:03 10° SSW
CZ-2D R/B 4.0 15:32:59 10° NNE 15:35:47 15° NNW 15:38:35 10° NW
Cosmos 1782 4.1 15:32:08 10° S 15:36:03 48° E 15:39:58 10° NNE
Cosmos 1898 Rocket 3.6 15:31:31 10° SW 15:36:49 62° NW 15:42:06 10° NE
Cosmos 407 Rocket 4.1 15:32:14 10° NW 15:37:34 58° NE 15:42:51 10° ESE
Cosmos 1908 Rocket 3.8 15:33:51 10° NNW 15:38:11 51° W 15:42:27 10° S
YAOGAN 1 4.4 15:34:56 10° NNE 15:39:01 37° E 15:43:04 10° SSE
COSMOS 2441 4.4 15:34:18 10° NNE 15:39:12 76° WNW 15:44:06 10° SSW
Cosmos 1536 3.6 15:36:21 10° NNW 15:40:25 58° ENE 15:44:28 10° SSE
CSL-04 Rocket 4.4 15:35:31 10° NNE 15:40:46 57° ESE 15:45:59 10° S
Feng Yun 1-1 Rocket 4.2 15:36:03 10° NNE 15:41:26 65° WNW 15:46:55 10° SW
Cosmos 2263 Rocket 2.8 15:37:33 10° NW 15:42:42 37° WSW 15:47:51 10° S
Cosmos 2278 3.8 15:39:26 10° SW 15:45:11 86° NW 15:50:57 10° NE
Cosmos 1937 Rocket 3.6 15:40:39 10° SW 15:45:53 65° NW 15:51:11 10° NE
Cosmos 1733 Rocket 4.0 15:44:16 10° NNW 15:47:54 26° W 15:51:31 10° SW
Cosmos 1125 Rocket 4.0 15:43:40 10° SSW 15:48:49 67° ESE 15:54:01 10° NE
Radarsat Rocket 3.9 15:43:24 10° NNE 15:49:22 76° WNW 15:55:12 10° SW
ARGOS Delta rocket 4.2 15:46:15 10° S 15:51:42 63° W 15:57:03 10° NNW
Cosmos 2369 Rocket 3.0 15:48:08 10° WNW 15:53:31 42° N 15:58:57 10° ENE
Iridium 2 4.2 15:50:05 10° S 15:53:54 68° E 15:57:46 10° NNE
Cosmos 1605 Rocket 4.0 15:48:15 10° SW 15:54:16 57° WNW 16:00:19 10° NNE
Cosmos 2100 Rocket 4.1 15:48:44 10° SSW 15:54:55 89° ESE 16:01:08 10° NNE
Cosmos 1943 Rocket 2.9 15:51:46 10° WNW 15:57:06 41° N 16:02:22 10° ENE
